Location: Blue Sky Observatory
(43.1153°N, 70.9036°W)
Time: 12:39:51
(UTC-04:00)

Daily predictions for brighter satellites

Satellite Brightness Start Highest point End
(mag) Time Altitude Azimuth Time Altitude Azimuth Time Altitude Azimuth
SL-19 R/B 4.5 20:36:32 10° SSE 20:42:15 76° ENE 20:48:27 10° NNW
Cosmos 1606 4.2 20:42:22 10° NNE 20:45:19 21° ENE 20:48:15 10° SE
SAR-Lupe-4 4.4 20:43:33 10° SE 20:46:48 34° ENE 20:50:05 10° N
Lacrosse 5 rocket 1.6 20:43:51 10° SSW 20:47:07 35° SE 20:50:27 10° ENE
Cosmos 1346 Rocket 2.8 20:43:59 10° N 20:47:58 79° E 20:51:58 10° SSE
Shenzhou-11 Module 3.4 20:48:07 10° W 20:50:49 28° SSW 20:53:30 10° SE
ATLAS 5 CENTAUR R/B 3.2 20:47:51 10° NNW 20:53:20 39° NE 20:59:18 10° ESE
YAOGAN 6 2.7 20:50:45 10° SSE 20:54:25 66° ENE 20:58:06 10° N
Cosmos 2346 Rocket 4.4 20:48:55 10° S 20:54:56 77° E 21:01:01 10° N
Cosmos 1939 Rocket 3.1 20:51:24 10° S 20:55:32 80° WSW 20:59:41 10° NNW
Aureole 1 4.4 20:54:34 10° S 20:57:31 54° ESE 21:00:55 10° NNE
Okean 1-7 3.4 20:57:08 10° N 21:01:25 47° ENE 21:05:39 10° SSE
Cosmos 1937 Rocket 4.2 20:57:33 10° SSW 21:02:37 59° WNW 21:07:43 10° NNE
Aureole 3 3.3 21:00:24 10° SSE 21:03:12 34° E 21:05:57 10° NNE
H-2A ROCKET BODY 3.7 21:01:54 10° S 21:03:22 12° SSE 21:05:22 10° SE
GPS 2-04 Rocket1 3.8 21:02:02 10° WSW 21:05:09 25° S 21:07:35 13° SE
H-2A R/B 3.4 21:01:31 10° ESE 21:05:54 26° ENE 21:10:15 10° N
SAR-Lupe-1 4.3 21:04:47 10° SSE 21:08:14 53° ENE 21:11:44 10° N
Cosmos 158 Rocket 4.4 21:04:11 10° N 21:08:52 44° ENE 21:12:56 13° SE
ARGOS 3.7 21:06:05 11° SE 21:10:55 41° ENE 21:15:55 10° N
Meteor 1-29 2.9 21:09:36 10° NNE 21:13:06 73° ESE 21:16:35 10° S
DNEPR-1 R/B 4.1 21:08:35 10° S 21:13:35 44° ESE 21:17:55 10° NE
Cosmos 1703 Rocket 3.6 21:09:37 10° N 21:14:03 84° W 21:18:26 10° S
Meteor 2-3 Rocket 4.3 21:14:26 10° SSW 21:20:06 64° WNW 21:25:45 10° N
Cosmos 1408 2.8 21:18:19 10° S 21:21:55 52° E 21:25:34 10° NNE
Milstar 3 4.3 21:15:29 10° SW 21:24:51 27° S 21:29:45 15° SE
Cosmos 1782 2.7 21:21:49 10° N 21:25:50 73° E 21:29:11 14° SSE
Cosmos 1733 Rocket 4.1 21:24:43 17° SE 21:26:58 26° E 21:30:34 10° NNE
ERS-1 Rocket 3.0 21:23:31 11° SSE 21:28:27 86° ENE 21:33:32 10° NNW
Cosmos 1825 2.1 21:28:25 10° S 21:32:10 66° E 21:35:56 10° NNE
SL-08 RB Rocket 4.2 21:28:54 17° SE 21:32:13 48° ENE 21:36:43 10° N
Cosmos 2344 3.8 21:25:14 10° S 21:32:28 47° ESE 21:40:20 10° NE
Cosmos 1869 Rocket 3.8 21:29:27 10° SSW 21:33:45 72° W 21:38:08 10° N
BREEZE-M DEB (TANK) 3.4 21:32:33 10° WNW 21:35:32 62° NNE 21:46:34 10° ESE
Cosmos 1048 Rocket 4.0 21:30:24 10° NNW 21:35:45 76° ENE 21:39:39 18° SSE
Helios 1B rocket 3.4 21:32:23 10° N 21:36:22 48° WNW 21:40:19 10° SW
Cosmos 2084 4.1 21:34:54 10° NW 21:38:32 41° WSW 21:41:16 17° S
USA 215 3.3 21:35:07 17° SE 21:40:23 88° NE 21:47:00 10° NW
MetOp-A 4.2 21:40:51 14° S 21:45:34 80° WSW 21:50:57 10° NNW
Cosmos 1862 3.4 21:43:53 21° SSE 21:46:22 54° E 21:50:16 10° NNE
Lacrosse 4 Rocket 1.6 21:42:31 10° NNW 21:47:02 67° ENE 21:49:28 26° SE
Cosmos 2221 Rocket 4.3 21:44:17 10° NNW 21:48:35 51° W 21:52:52 10° SSW
ISS -2.7 21:50:36 10° WSW 21:53:45 45° NNW 21:56:53 10° NE
Cosmos 1943 Rocket 2.1 21:48:19 10° SSW 21:53:55 89° WNW 21:59:30 10° NNE
Terra 2.8 21:54:15 23° ESE 21:56:19 32° ENE 22:00:32 10° N
ATLAS CENTAUR R/B 3.6 21:59:57 10° ENE 21:59:57 10° ENE 22:00:04 10° ENE
Cosmos 2251 Rocket 4.5 21:53:13 10° N 21:57:59 34° ENE 22:00:27 22° ESE
Cosmos 1674 Rocket 3.8 21:58:42 10° N 22:02:55 50° ENE 22:04:29 33° SE
Tiangong 2 3.5 22:01:47 10° WSW 22:03:20 13° SSW 22:03:23 13° SSW
SPOT 1/Viking Rocket 3.5 22:00:53 25° SSE 22:03:56 78° ENE 22:09:10 10° N
CENTAUR R/B 2.7 22:00:33 10° SW 22:06:35 76° NW 22:13:33 10° NE
Cosmos 1340 3.2 22:03:00 10° NNW 22:06:44 55° W 22:08:45 24° SSW
Cosmos 372 Rocket 4.2 22:01:44 10° SSW 22:06:51 69° WNW 22:11:58 10° NNE
Cosmos 1437 3.5 22:07:17 10° N 22:10:16 35° ENE 22:10:20 35° E
Cosmos 1092 Rocket 4.2 22:07:21 26° SSE 22:10:40 52° E 22:16:35 10° NNE
BREEZE M DEB (TANK) 3.8 21:59:21 10° WSW 22:10:49 88° NW 22:14:20 10° ENE
Nadezhda 4 Rocket 3.9 22:06:49 18° S 22:11:31 75° E 22:17:41 10° N
Cosmos 1269 Rocket 4.4 22:06:30 10° NNW 22:11:42 58° WSW 22:14:56 23° S
SPOT 5 3.3 22:08:10 21° S 22:11:48 69° WSW 22:17:06 10° NNW
COSMOS 2455 4.3 22:06:39 10° WSW 22:12:15 40° NW 22:17:55 10° NNE
Cosmos 2369 Rocket 3.8 22:10:35 10° WSW 22:15:47 37° WNW 22:21:04 10° N
GEOS 3 Rocket 3.9 22:13:40 28° ESE 22:16:17 58° NE 22:21:27 10° NNW
Cosmos 1125 Rocket 4.5 22:12:25 10° SW 22:17:28 48° WNW 22:22:33 10° N
H-2A R/B 3.0 22:16:52 27° E 22:17:42 29° ENE 22:21:19 10° N
Cosmos 405 Rocket 4.4 22:15:52 10° NNE 22:18:35 19° ENE 22:18:42 19° ENE
Cosmos 1833 4.4 22:15:17 10° NNW 22:21:02 68° WSW 22:24:01 29° S
Lacrosse 5 rocket 3.1 22:23:07 10° W 22:26:19 29° NNW 22:29:36 10° NNE
Okean 3 3.6 22:22:25 10° N 22:26:32 54° E 22:27:17 47° ESE
IGS 5A 3.5 22:29:14 49° SE 22:30:06 63° ENE 22:34:13 10° N
Cosmos 2297 Rocket 4.0 22:29:23 10° N 22:33:30 20° NE 22:36:27 14° E
ATLAS 5 CENTAUR R/B 3.1 22:32:26 10° NW 22:38:12 47° WSW 22:41:08 29° S
Cosmos 1908 Rocket 3.5 22:38:31 53° SSE 22:39:26 70° E 22:43:52 10° NNE
Cosmos 1867 3.5 22:34:49 10° NNW 22:40:19 85° ENE 22:42:05 45° SE
H-2A R/B 2.9 22:42:09 24° SSW 22:45:04 45° W 22:50:11 10° NNW
Cosmos 494 Rocket 4.0 22:42:39 10° NNW 22:47:53 76° WSW 22:49:23 46° S
Okean 2 Rocket 4.0 22:48:28 33° E 22:48:28 33° E 22:52:10 10° NNE
Cosmos 1656 Rocket 3.9 22:48:00 15° SW 22:52:35 68° WNW 22:58:07 10° NNE
CZ-2C R/B 4.4 22:54:36 23° E 22:55:41 24° ENE 22:59:36 10° NNE
deb Chang Zheng 4 3.6 22:55:34 10° NNE 22:59:59 63° ESE 23:00:03 63° ESE
Cosmos 2195 Rocket 4.4 22:58:09 38° S 23:00:47 87° E 23:07:09 10° N
Meteor 1-20 Rocket 4.3 23:01:57 50° SE 23:03:10 62° E 23:08:47 10° NNE
CZ-4B R/B 3.5 23:00:07 10° NNE 23:04:59 54° E 23:05:09 54° ESE
Cosmos 1782 Rocket 3.4 23:06:37 79° SE 23:06:47 81° E 23:11:11 10° N
APEX 4.3 23:03:54 10° NNW 23:08:08 36° NE 23:08:14 36° ENE
Meteor 1-25 Rocket 4.2 23:07:14 51° S 23:08:45 77° E 23:14:35 10° NNE
Sich 1 Rocket 4.1 23:12:21 44° SW 23:13:20 54° W 23:17:41 10° N
Cosmos 1655 Rocket 3.9 23:13:16 50° SSE 23:14:58 76° E 23:21:13 10° N
CZ-2C R/B 3.4 23:18:38 10° NNE 23:22:58 34° E 23:22:58 34° E
Cosmos 2227 Rocket 2.6 23:18:01 10° NNW 23:23:34 52° ENE 23:24:44 45° E
USA 215 4.4 23:22:28 24° SW 23:23:53 26° SW 23:29:14 10° WNW
Lacrosse 4 Rocket 3.9 23:23:04 10° WNW 23:25:09 13° WSW 23:25:48 13° WSW
Cosmos 1975 Rocket 3.2 23:23:33 10° NNW 23:27:59 64° W 23:28:04 64° WSW
Cosmos 2219 3.6 23:23:47 10° NW 23:29:21 52° WSW 23:30:23 46° SW
Cosmos 2026 Rocket 4.2 23:28:05 38° SSW 23:30:25 65° W 23:36:40 10° N
ISS -1.0 23:28:23 10° NW 23:30:48 19° N 23:33:12 10° NE
Cosmos 1633 3.8 23:33:17 38° NNE 23:33:17 38° NNE 23:35:37 10° N
ALOS 2 3.7 23:32:47 33° ENE 23:32:47 33° ENE 23:36:36 10° N
CZ-4C R/B 4.3 23:27:00 10° NNW 23:33:00 30° NE 23:39:22 11° E
Cosmos 1812 3.8 23:30:02 10° NNW 23:33:20 39° WNW 23:33:20 39° WNW
Terra 3.2 23:33:08 27° WSW 23:34:02 28° W 23:38:10 10° NW
ATLAS CENTAUR R/B 2.0 23:36:09 48° WNW 23:36:16 48° NW 23:40:00 10° NNE
BREEZE-M DEB (TANK) 3.7 23:36:03 43° SW 23:37:52 77° SE 23:54:07 10° ENE
Cosmos 2151 Rocket 3.9 23:44:35 57° NE 23:44:35 57° NE 23:48:20 10° NNE
Meteor 1-11 Rocket 4.0 23:43:43 52° ESE 23:44:07 53° E 23:49:55 10° NNE
Gbstr 26 Del rocket 3.4 23:40:30 10° NW 23:44:06 53° NNW 23:44:06 53° NNW
ARGOS Delta rocket 4.1 23:41:33 10° N 23:45:57 53° WNW 23:46:12 52° W
Cosmos 1536 4.5 23:47:21 26° NE 23:47:21 26° NE 23:49:40 10° NNE
Cosmos 2369 3.8 23:46:56 58° ESE 23:46:56 58° ESE 23:52:25 10° NNE
CZ-4C R/B 4.1 23:50:08 50° WNW 23:50:08 50° WNW 23:53:44 10° NNW
Cosmos 1980 Rocket 4.0 23:51:05 18° E 23:51:05 18° E 23:53:45 10° ENE
Meteor 2-4 Rocket 3.9 23:45:40 10° N 23:50:54 51° ENE 23:51:11 51° E
Cosmos 1536 Rocket 3.9 23:47:15 10° N 23:51:01 60° NNE 23:51:01 60° NNE
S3M 4.0 23:45:43 10° NNW 23:51:49 72° W 23:52:56 58° SSW
H-2A R/B 3.7 23:53:59 23° W 23:53:59 23° W 23:57:03 10° NW
Okean 1 4.4 23:51:47 10° NNW 23:54:53 39° WNW 23:54:53 39° WNW
